TimeCDT,TemperatureF,Dew PointF,Humidity,Sea Level PressureIn,VisibilityMPH,Wind Direction,Wind SpeedMPH,Gust SpeedMPH,PrecipitationIn,Events,Conditions,WindDirDegrees,DateUTC
12:15 AM,33.8,33.8,100,29.82,1.8,North,18.4,26.5,N/A,,Overcast,350,2013-03-16 05:15:00
12:35 AM,33.8,33.8,100,29.83,3.0,NNW,15.0,-,N/A,,Overcast,340,2013-03-16 05:35:00
12:55 AM,33.8,33.8,100,29.84,2.0,NNW,13.8,-,N/A,,Overcast,330,2013-03-16 05:55:00
1:35 AM,33.8,33.8,100,29.84,3.0,NNW,18.4,-,N/A,,Overcast,330,2013-03-16 06:35:00
1:55 AM,33.8,33.8,100,29.85,3.0,NNW,18.4,-,N/A,,Overcast,340,2013-03-16 06:55:00
2:15 AM,32.0,32.0,100,29.86,2.5,NNW,16.1,-,N/A,,Overcast,330,2013-03-16 07:15:00
2:35 AM,32.0,32.0,100,29.87,3.0,NNW,17.3,24.2,N/A,,Overcast,340,2013-03-16 07:35:00
2:55 AM,32.0,32.0,100,29.87,3.0,NNW,17.3,23.0,N/A,,Overcast,340,2013-03-16 07:55:00
3:15 AM,32.0,32.0,100,29.88,4.0,NNW,19.6,-,N/A,,Overcast,330,2013-03-16 08:15:00
3:35 AM,32.0,32.0,100,29.89,4.0,NNW,21.9,-,N/A,,Overcast,330,2013-03-16 08:35:00
3:55 AM,32.0,32.0,100,29.91,5.0,NNW,20.7,-,N/A,,Overcast,330,2013-03-16 08:55:00
4:15 AM,32.0,32.0,100,29.91,4.0,NNW,20.7,28.8,N/A,,Overcast,330,2013-03-16 09:15:00
4:35 AM,32.0,32.0,100,29.92,6.0,NNW,16.1,23.0,N/A,Rain,Light Rain,340,2013-03-16 09:35:00
4:55 AM,32.0,32.0,100,29.93,6.0,NNW,18.4,24.2,N/A,,Overcast,340,2013-03-16 09:55:00
5:15 AM,32.0,32.0,100,29.94,8.0,NNW,23.0,-,N/A,,Overcast,340,2013-03-16 10:15:00
5:35 AM,30.2,30.2,100,29.96,9.0,North,20.7,-,N/A,,Overcast,350,2013-03-16 10:35:00
5:55 AM,30.2,30.2,100,29.97,10.0,NNW,20.7,27.6,N/A,,Overcast,340,2013-03-16 10:55:00
6:15 AM,30.2,30.2,100,29.98,8.0,North,18.4,25.3,N/A,,Overcast,350,2013-03-16 11:15:00
6:35 AM,28.4,28.4,100,30.00,9.0,North,18.4,25.3,N/A,,Overcast,350,2013-03-16 11:35:00
6:55 AM,28.4,28.4,100,30.01,9.0,NNW,18.4,-,N/A,,Overcast,340,2013-03-16 11:55:00
7:15 AM,28.4,26.6,93,30.01,10.0,North,21.9,-,N/A,,Overcast,350,2013-03-16 12:15:00
7:35 AM,28.4,26.6,93,30.03,-9999.0,North,21.9,-,N/A,,Overcast,360,2013-03-16 12:35:00
7:55 AM,28.4,26.6,93,30.04,10.0,North,20.7,-,N/A,,Overcast,350,2013-03-16 12:55:00
8:15 AM,26.6,24.8,93,30.04,10.0,North,20.7,26.5,N/A,,Overcast,360,2013-03-16 13:15:00
8:35 AM,26.6,23.0,86,30.05,10.0,North,20.7,-,N/A,,Overcast,360,2013-03-16 13:35:00
8:55 AM,24.8,21.2,86,30.06,10.0,North,18.4,27.6,N/A,,Overcast,360,2013-03-16 13:55:00
9:15 AM,24.8,23.0,93,30.06,10.0,North,23.0,-,N/A,,Overcast,360,2013-03-16 14:15:00
9:35 AM,24.8,21.2,86,30.07,10.0,North,21.9,-,N/A,,Overcast,360,2013-03-16 14:35:00
9:55 AM,24.8,21.2,86,30.07,10.0,North,18.4,25.3,N/A,,Overcast,10,2013-03-16 14:55:00
10:15 AM,24.8,21.2,86,30.07,10.0,North,23.0,-,N/A,,Overcast,360,2013-03-16 15:15:00
10:35 AM,24.8,21.2,86,30.07,10.0,North,20.7,26.5,N/A,,Overcast,360,2013-03-16 15:35:00
10:55 AM,24.8,19.4,80,30.08,10.0,North,17.3,23.0,N/A,,Overcast,360,2013-03-16 15:55:00
11:15 AM,24.8,21.2,86,30.09,10.0,North,15.0,20.7,N/A,,Overcast,350,2013-03-16 16:15:00
11:35 AM,24.8,19.4,80,30.10,10.0,North,17.3,-,N/A,,Overcast,10,2013-03-16 16:35:00
11:55 AM,24.8,21.2,86,30.09,10.0,NNE,16.1,-,N/A,,Overcast,20,2013-03-16 16:55:00
12:15 PM,26.6,21.2,80,30.11,10.0,North,12.7,19.6,N/A,,Overcast,360,2013-03-16 17:15:00
12:35 PM,26.6,21.2,80,30.10,10.0,North,17.3,-,N/A,,Overcast,350,2013-03-16 17:35:00
12:55 PM,26.6,21.2,80,30.11,10.0,North,16.1,-,N/A,,Overcast,360,2013-03-16 17:55:00
1:15 PM,26.6,21.2,80,30.10,10.0,North,15.0,21.9,N/A,,Overcast,10,2013-03-16 18:15:00
1:35 PM,26.6,21.2,80,30.10,10.0,North,12.7,-,N/A,,Overcast,10,2013-03-16 18:35:00
1:55 PM,26.6,19.4,74,30.11,10.0,NNE,10.4,20.7,N/A,,Overcast,20,2013-03-16 18:55:00
2:15 PM,26.6,21.2,80,30.10,10.0,North,15.0,-,N/A,,Overcast,10,2013-03-16 19:15:00
2:35 PM,26.6,21.2,80,30.09,10.0,NNE,12.7,-,N/A,,Overcast,20,2013-03-16 19:35:00
2:55 PM,26.6,19.4,74,30.09,10.0,North,12.7,-,N/A,,Overcast,360,2013-03-16 19:55:00
3:15 PM,26.6,21.2,80,30.08,10.0,North,12.7,-,N/A,,Overcast,10,2013-03-16 20:15:00
3:35 PM,26.6,21.2,80,30.08,10.0,NNE,12.7,-,N/A,,Overcast,20,2013-03-16 20:35:00
3:55 PM,26.6,19.4,74,30.08,10.0,North,12.7,-,N/A,,Overcast,10,2013-03-16 20:55:00
4:15 PM,26.6,21.2,80,30.08,10.0,North,12.7,-,N/A,,Overcast,360,2013-03-16 21:15:00
4:35 PM,26.6,21.2,80,30.09,10.0,NNE,10.4,17.3,N/A,,Overcast,20,2013-03-16 21:35:00
4:55 PM,26.6,21.2,80,30.08,10.0,NNE,12.7,-,N/A,,Overcast,20,2013-03-16 21:55:00
5:15 PM,26.6,19.4,74,30.09,10.0,North,12.7,18.4,N/A,,Overcast,360,2013-03-16 22:15:00
5:35 PM,26.6,21.2,80,30.09,10.0,North,12.7,-,N/A,,Overcast,10,2013-03-16 22:35:00
5:55 PM,26.6,21.2,80,30.09,10.0,NNE,12.7,-,N/A,,Overcast,20,2013-03-16 22:55:00
6:15 PM,26.6,19.4,74,30.09,10.0,North,13.8,-,N/A,,Overcast,10,2013-03-16 23:15:00
6:35 PM,24.8,19.4,80,30.10,10.0,North,12.7,18.4,N/A,,Mostly Cloudy,360,2013-03-16 23:35:00
6:55 PM,24.8,19.4,80,30.10,10.0,North,10.4,-,N/A,,Partly Cloudy,10,2013-03-16 23:55:00
7:15 PM,24.8,19.4,80,30.10,10.0,North,11.5,-,N/A,,Partly Cloudy,10,2013-03-17 00:15:00
7:35 PM,24.8,19.4,80,30.11,10.0,North,10.4,-,N/A,,Mostly Cloudy,10,2013-03-17 00:35:00
7:55 PM,24.8,19.4,80,30.11,10.0,NNE,10.4,-,N/A,,Overcast,20,2013-03-17 00:55:00
8:15 PM,24.8,19.4,80,30.13,10.0,North,9.2,-,N/A,,Overcast,10,2013-03-17 01:15:00
8:35 PM,24.8,19.4,80,30.13,10.0,North,10.4,-,N/A,,Overcast,360,2013-03-17 01:35:00
8:55 PM,24.8,19.4,80,30.15,10.0,North,11.5,-,N/A,,Overcast,360,2013-03-17 01:55:00
9:15 PM,24.8,19.4,80,30.16,10.0,North,12.7,-,N/A,,Overcast,360,2013-03-17 02:15:00
9:35 PM,23.0,17.6,80,30.17,10.0,North,11.5,-,N/A,,Overcast,360,2013-03-17 02:35:00
9:55 PM,23.0,17.6,80,30.17,10.0,North,10.4,-,N/A,,Overcast,10,2013-03-17 02:55:00
10:15 PM,23.0,17.6,80,30.17,10.0,North,12.7,-,N/A,,Overcast,360,2013-03-17 03:15:00
10:35 PM,23.0,17.6,80,30.18,10.0,NNE,12.7,-,N/A,,Overcast,20,2013-03-17 03:35:00
10:55 PM,23.0,17.6,80,30.18,-9999.0,NNE,13.8,-,N/A,,Overcast,20,2013-03-17 03:55:00
11:15 PM,21.2,17.6,86,30.18,10.0,NNE,12.7,-,N/A,,Overcast,20,2013-03-17 04:15:00
11:35 PM,21.2,17.6,86,30.18,10.0,North,10.4,-,N/A,,Overcast,10,2013-03-17 04:35:00
11:55 PM,21.2,17.6,86,30.18,10.0,NNE,10.4,-,N/A,,Overcast,20,2013-03-17 04:55:00